Tracking 20623 objects as of 4-Apr-2020
HD Live streaming from Space Station
objects crossing your sky now

HUSKYSAT-1

Track HUSKYSAT-1 now!
10-day predictions
HUSKYSAT-1 is classified as:


NORAD ID: 45119
Int'l Code: 2019-071J
Perigee: 464.4 km
Apogee: 481.9 km
Inclination: 51.6 °
Period: 93.9 minutes
Semi major axis: 6844 km
RCS: Unknown
Launch date: November 2, 2019
Source: United States (US)
Launch site: WALLOPS ISLAND (WLPIS)

Uplink (MHz): 145.910-145.940
Downlink (MHz): 436.810-435.840
Beacon (MHz): 435.800/24049.000
Mode: 1200bps BPSK
Call sign:
Status: Active

aabbcc
Your satellite tracking list
Your tracking list is empty




NASA's NSSDC Master Catalog

Two Line Element Set (TLE):
1 45119U 19071J   20094.77757887 +.00001386 +00000-0 +53961-4 0  9995
2 45119 051.6441 004.0930 0012785 142.2993 217.8888 15.33302083009663
Source of the keplerian elements: AFSPC